Regional Weather Roundup
Issued by NWS Sterling, VA

Current Version | Previous Version | Text Only | Print | Product List | Glossary On
Versions: 1 2 3 4 5 6 7 8 9 10 11 12 13 14 15 16 17 18 19 20 21 22 23 24 25 26 27 28
000
ASUS41 KLWX 301210
RWRLWX

REGIONAL WEATHER ROUNDUP
NATIONAL WEATHER SERVICE BALTIMORE MD/WASHINGTON DC
800 AM EDT FRI SEP 30 2016

Note: "FAIR" indicates few or no clouds below 12,000 feet
with no significant weather and/or obstructions to visibility.
 TC=TEMPERATURE CELSIUS

 * =Non NWS site. Station does not report precipitation (e.g. rain,
    snow, etc.), thunder, or fog.

DCZ001-MDZ009-015-VAZ040>042-051-053>054-301300-
WASHINGTON METRO

CITY           SKY/WX    TMP DP  RH WIND       PRES   REMARKS
WASHINGTON NAT DRIZZLE   62  61  96 NE15      30.16R
DULLES         CLOUDY    60  57  89 NE12      30.17R
ANDREWS AFB    DRIZZLE   61  59  94 NE13G20   30.14R FOG
FT BELVOIR     CLOUDY    62  59  90 VRB3      30.14S
QUANTICO       LGT RAIN  65  61  87 NE15      30.14S
LEESBURG*      CLOUDY    61  61 100 NE7       30.19R
MANASSAS*      CLOUDY    61  61 100 NE10      30.15R
GAITHERSBURG*  CLOUDY    57  54  88 NE6       30.21R

$$

MDZ006>007-011-014-301300-
BALTIMORE METRO

CITY           SKY/WX    TMP DP  RH WIND       PRES   REMARKS
BWI AIRPORT    DRIZZLE   58  57  97 NE13      30.18R FOG
MD SCIENCE CTR   N/A     59  56  89 MISG      30.19R
MARTIN STATE   CLOUDY    59  59 100 N3        30.20R
ANNAPOLIS      CLOUDY    63  61  93 NE9       30.16S FOG
FORT MEADE*    CLOUDY    59  55  88 NE7       30.19S

$$

MDZ012-015-019>023-301300-
MARYLAND EASTERN SHORE

CITY           SKY/WX    TMP DP  RH WIND       PRES   REMARKS
OCEAN CITY     CLOUDY   N/A N/A N/A E14G24    30.08
SALISBURY      LGT RAIN  70  69  97 NE12      30.08S
EASTON*        CLOUDY    64  63  94 NE13      30.16R

$$

MDZ017>025-301300-
SOUTHERN MARYLAND

CITY           SKY/WX    TMP DP  RH WIND       PRES   REMARKS
PATUXENT RIVER CLOUDY    67  65  93 NE14      30.09R
ST INIGOES     LGT RAIN  68  66  93 N8        30.08R
LEONARDTOWN*   NOT AVBL

$$

MDZ003>005-301300-
NORTH CENTRAL MARYLAND

CITY           SKY/WX    TMP DP  RH WIND       PRES   REMARKS
FREDERICK*     LGT RAIN  57  57 100 N13       30.23R
HAGERSTOWN APT CLOUDY    57  54  89 N7        30.21R

$$

MDZ501>502-301300-
WESTERN MARYLAND

CITY           SKY/WX    TMP DP  RH WIND       PRES   REMARKS
OAKLAND*       FOG       50  50 100 E20G28    30.16F VSB 1/2
CUMBERLAND*    CLOUDY    59  59 100 N3        30.25R

$$

VAZ025>031-301300-
SHENANDOAH VALLEY

CITY           SKY/WX    TMP DP  RH WIND       PRES   REMARKS
WINCHESTER*    HVY RAIN  59  57  94 NE5       30.19R
FRONT ROYAL*   CLOUDY    57  57 100 N8        30.16S
LURAY*         CLOUDY   N/A N/A N/A N12       30.15R
NEW MARKET*    CLOUDY   N/A N/A N/A N13G20    30.13S
STAUNTON*      RAIN      59  59  97 NE6       30.14R
WAYNESBORO*    CLOUDY    60  58  96 N7        30.12R

$$

WVZ021-048>050-054>055-301300-
EASTERN WEST VIRGINIA PANHANDLE

CITY           SKY/WX    TMP DP  RH WIND       PRES   REMARKS
MARTINSBURG    CLOUDY    57  55  93 N8        30.20R
PETERSBURG*    DRIZZLE   59  58  95 N5        30.17S

$$

VAZ036>039-050-301300-
CENTRAL FOOTHILLS

CITY           SKY/WX    TMP DP  RH WIND       PRES   REMARKS
CHARLOTTESVILL CLOUDY    63  60  90 NE16      30.12R FOG
CULPEPER*      CLOUDY    62  61  97 NE7       30.15S FOG
ORANGE*        DRIZZLE   63  63 100 N7        30.14R
GORDONSVILLE*  CLOUDY    63  63 100 NE8G17    30.12R FOG
WARRENTON*     CLOUDY    62  57  85 NE13G18   30.14R

$$

VAZ055>057-301300-
NORTH AND CENTRAL PIEDMONT

CITY           SKY/WX    TMP DP  RH WIND       PRES   REMARKS
FREDERICKSBRG* CLOUDY    64  64 100 NE8       30.11S
STAFFORD*      CLOUDY    62  62 100 NE8       30.17R

$$

NCZ024-NYZ072-PAZ021-071-VAZ022-071-301300-
OTHER REGIONAL OBSERVATIONS

CITY           SKY/WX    TMP DP  RH WIND       PRES   REMARKS
NEW YORK CITY  CLOUDY    58  50  75 NE9G21    30.32S
PHILADELPHIA   RAIN      57  56  96 NE15      30.23R FOG
PITTSBURGH     CLOUDY    57  56  96 NE7       30.17R
ROANOKE        CLOUDY    68  64  87 E8        30.05S
RICHMOND       CLOUDY    66  66 100 NE9       30.08R FOG
RALEIGH        CLOUDY    73  71  93 SE8       30.01S

$$

ANZ530>537-301300-
MARINE OBSERVATIONS

STATION/POSITION TIME  TEMP    WIND        PRES
                       AIR SEA DIR/SP/G
                 (UTC) (F)     (DEG/KT/KT) (MB)
THOMAS PT LIGHT  1200   64 72   30/ 18/ 22 1021.9R
BALT KEY BRIDGE  1148   59      20/ 11/ 13 1022.0R
COVE POINT       1148   66      60/ 17/ 22 1019.6R
LEWISETTA        1148   69 72   50/  9/ 14 1018.3R
SOLOMONS ISLAND  1148   67 74   20/ 12/ 16   N/A
PINEY POINT      1142           60/  9/ 12   N/A

$$





USA.gov is the U.S. government's official web portal to all federal, state and local government web resources and services.